Regional Weather Roundup
Issued by NWS

Home | Current Version | Previous Version | Graphics & Text | Print | Product List | Glossary On
Versions: 1 2 3 4 5 6 7 8 9 10 11 12 13 14 15 16 17 18 19 20 21 22 23 24 25 26 27 28 29 30 31 32 33 34 35 36 37 38 39 40 41 42 43 44 45 46 47 48 49 50
000
ASUS43 KBIS 062020
RWRND

NORTH DAKOTA REGIONAL WEATHER ROUNDUP
NATIONAL WEATHER SERVICE BISMARCK ND
200 PM CST FRI MAR 06 2015

NOTE: "FAIR" INDICATES FEW OR NO CLOUDS BELOW 12,000 FEET WITH NO
SIGNIFICANT WEATHER AND/OR OBSTRUCTIONS TO VISIBILITY.


NDZ001>003-009>011-017-062100-
NORTHWEST NORTH DAKOTA

CITY           SKY/WX    TMP DP  RH WIND       PRES   REMARKS
WILLISTON      PTSUNNY   45  27  49 SW14      29.96F
MINOT          CLOUDY    35  20  54 S14G25    29.95F
MINOT AFB      PTSUNNY   34  25  68 SW15      29.93F
$$

NDZ018>021-031>035-040>046-062100-
SOUTHWEST NORTH DAKOTA

CITY           SKY/WX    TMP DP  RH WIND       PRES   REMARKS
BISMARCK       CLOUDY    41  17  38 SW9       30.06F
DICKINSON      PTSUNNY   53  20  27 W15       29.97F
GARRISON         N/A     38  22  52 SW13      29.99F
HETTINGER ARPT MOSUNNY   55  16  21 W23G30    30.02F
$$

NDZ004>008-012>016-024-026-027-054-062100-
NORTHEAST NORTH DAKOTA

CITY           SKY/WX    TMP DP  RH WIND       PRES   REMARKS
GRAND FORKS    PTSUNNY   37  16  42 W9        30.03F
GRND FRKS AFB  MOSUNNY   38  15  38 W8        30.02F
DEVILS LAKE    MOSUNNY   34  21  60 SW13      29.99F
$$

NDZ022-023-025-028>030-036>039-047>053-062100-
SOUTHEAST NORTH DAKOTA

CITY           SKY/WX    TMP DP  RH WIND       PRES   REMARKS
FARGO          MOSUNNY   37  19  48 W9        30.06F
JAMESTOWN      SUNNY     36  19  50 W10       30.04F
$$




USA.gov is the U.S. government's official web portal to all federal, state and local government web resources and services.